Time,TemperatureF,DewpointF,PressureIn,WindDirection,WindDirectionDegrees,WindSpeedMPH,WindSpeedGustMPH,Humidity,HourlyPrecipIn,Conditions,Clouds,dailyrainin,SoftwareType,DateUTC
2013-06-19 00:01:00,67.0,35.0,-100.00,NW,308,6.0,19.0,31,0.00,,,-99.99,,2013-06-19 00:01:00,
2013-06-19 00:11:00,70.0,33.0,-100.00,NNW,328,6.0,12.0,25,0.00,,,-99.99,,2013-06-19 00:11:00,
2013-06-19 00:22:00,69.0,31.0,-100.00,North,354,6.0,11.0,24,0.00,,,-99.99,,2013-06-19 00:22:00,
2013-06-19 00:33:00,70.0,32.0,-100.00,North,360,5.0,9.0,25,0.00,,,-99.99,,2013-06-19 00:33:00,
2013-06-19 00:43:00,70.0,32.0,-100.00,North,350,5.0,9.0,24,0.00,,,-99.99,,2013-06-19 00:43:00,
2013-06-19 00:53:00,71.0,32.0,-100.00,NW,318,7.0,12.0,24,0.00,,,-99.99,,2013-06-19 00:53:00,
2013-06-19 01:01:00,70.0,32.0,-100.00,NNW,335,7.0,12.0,24,0.00,,,-99.99,,2013-06-19 01:01:00,
2013-06-19 01:11:00,70.0,32.0,-100.00,NNW,335,6.0,10.0,24,0.00,,,-99.99,,2013-06-19 01:11:00,
2013-06-19 01:22:00,70.0,34.0,-100.00,NNW,329,7.0,16.0,26,0.00,,,-99.99,,2013-06-19 01:22:00,
2013-06-19 01:32:00,70.0,30.0,-100.00,NNE,20,6.0,13.0,23,0.00,,,-99.99,,2013-06-19 01:32:00,
2013-06-19 01:42:00,69.0,31.0,-100.00,NNE,32,7.0,14.0,24,0.00,,,-99.99,,2013-06-19 01:42:00,
2013-06-19 01:53:00,69.0,32.0,-100.00,NE,42,11.0,18.0,25,0.00,,,-99.99,,2013-06-19 01:53:00,
2013-06-19 02:01:00,68.0,33.0,-100.00,NE,40,11.0,19.0,27,0.00,,,-99.99,,2013-06-19 02:01:00,
2013-06-19 02:11:00,67.0,32.0,-100.00,NE,41,12.0,21.0,28,0.00,,,-99.99,,2013-06-19 02:11:00,
2013-06-19 02:21:00,67.0,32.0,-100.00,NE,49,11.0,17.0,27,0.00,,,-99.99,,2013-06-19 02:21:00,
2013-06-19 02:32:00,67.0,32.0,-100.00,NE,52,9.0,17.0,27,0.00,,,-99.99,,2013-06-19 02:32:00,
2013-06-19 02:42:00,66.0,33.0,-100.00,NE,38,8.0,16.0,29,0.00,,,-99.99,,2013-06-19 02:42:00,
2013-06-19 02:51:00,62.0,37.0,-100.00,NNE,20,16.0,24.0,39,0.00,,,-99.99,,2013-06-19 02:51:00,
2013-06-19 03:01:00,61.0,38.0,-100.00,NNE,20,18.0,26.0,43,0.00,,,-99.99,,2013-06-19 03:01:00,
2013-06-19 03:11:00,60.0,39.0,-100.00,NNE,24,16.0,22.0,45,0.00,,,-99.99,,2013-06-19 03:11:00,
2013-06-19 03:22:00,-999.0,-99.9,-100.00,NNE,24,16.0,23.0,-999,-99.99,,,-99.99,,2013-06-19 03:22:00,
2013-06-19 03:42:00,59.0,38.0,-100.00,NNE,21,17.0,27.0,45,0.00,,,-99.99,,2013-06-19 03:42:00,
2013-06-19 04:01:00,57.0,38.0,-100.00,NNE,27,12.0,17.0,48,0.00,,,-99.99,,2013-06-19 04:01:00,
2013-06-19 04:11:00,57.0,38.0,-100.00,NNE,27,12.0,16.0,49,0.00,,,-99.99,,2013-06-19 04:11:00,
2013-06-19 04:32:00,60.0,39.0,-100.00,NE,47,24.0,33.0,46,0.00,,,-99.99,,2013-06-19 04:32:00,
2013-06-19 04:42:00,60.0,40.0,-100.00,NE,41,24.0,39.0,48,0.00,,,-99.99,,2013-06-19 04:42:00,
2013-06-19 04:52:00,59.0,40.0,-100.00,NE,40,23.0,43.0,49,0.00,,,-99.99,,2013-06-19 04:52:00,
2013-06-19 05:01:00,59.0,40.0,-100.00,NE,38,21.0,32.0,50,0.00,,,-99.99,,2013-06-19 05:01:00,
2013-06-19 05:11:00,58.0,40.0,-100.00,NE,35,18.0,34.0,51,0.00,,,-99.99,,2013-06-19 05:11:00,
2013-06-19 05:22:00,58.0,40.0,-100.00,NE,38,19.0,33.0,51,0.00,,,-99.99,,2013-06-19 05:22:00,
2013-06-19 05:32:00,58.0,40.0,-100.00,NE,40,21.0,33.0,51,0.00,,,-99.99,,2013-06-19 05:32:00,
2013-06-19 05:42:00,57.0,40.0,-100.00,NE,37,17.0,31.0,52,0.00,,,-99.99,,2013-06-19 05:42:00,
2013-06-19 05:52:00,57.0,40.0,-100.00,NE,35,14.0,23.0,53,0.00,,,-99.99,,2013-06-19 05:52:00,
2013-06-19 06:01:00,57.0,40.0,-100.00,NNE,31,12.0,20.0,53,0.00,,,-99.99,,2013-06-19 06:01:00,
2013-06-19 06:11:00,57.0,40.0,-100.00,NE,41,18.0,27.0,52,0.00,,,-99.99,,2013-06-19 06:11:00,
2013-06-19 06:21:00,58.0,39.0,-100.00,NE,40,13.0,27.0,48,0.00,,,-99.99,,2013-06-19 06:21:00,
2013-06-19 06:33:00,59.0,39.0,-100.00,NE,37,13.0,22.0,48,0.00,,,-99.99,,2013-06-19 06:33:00,
2013-06-19 06:42:00,58.0,39.0,-100.00,NE,35,11.0,18.0,48,0.00,,,-99.99,,2013-06-19 06:42:00,
2013-06-19 06:52:00,58.0,38.0,-100.00,ESE,117,5.0,13.0,47,0.00,,,-99.99,,2013-06-19 06:52:00,
2013-06-19 07:01:00,58.0,39.0,-100.00,ESE,103,4.0,11.0,49,0.00,,,-99.99,,2013-06-19 07:01:00,
2013-06-19 07:11:00,58.0,38.0,-100.00,ESE,114,5.0,9.0,49,0.00,,,-99.99,,2013-06-19 07:11:00,
2013-06-19 07:22:00,58.0,38.0,-100.00,ESE,112,5.0,11.0,47,0.00,,,-99.99,,2013-06-19 07:22:00,
2013-06-19 07:33:00,58.0,38.0,-100.00,SE,145,4.0,9.0,46,0.00,,,-99.99,,2013-06-19 07:33:00,
2013-06-19 07:43:00,58.0,38.0,-100.00,SE,141,4.0,7.0,46,0.00,,,-99.99,,2013-06-19 07:43:00,
2013-06-19 07:53:00,54.0,38.0,-100.00,West,275,7.0,9.0,56,-99.99,,,-99.99,,2013-06-19 07:53:00,
2013-06-19 08:02:00,53.0,41.0,-100.00,NW,318,8.0,18.0,64,0.00,,,-99.99,,2013-06-19 08:02:00,
2013-06-19 08:11:00,52.0,42.0,-100.00,North,1,15.0,27.0,67,0.00,,,-99.99,,2013-06-19 08:11:00,
2013-06-19 08:22:00,54.0,39.0,-100.00,NNE,18,11.0,22.0,57,0.00,,,-99.99,,2013-06-19 08:22:00,
2013-06-19 08:43:00,51.0,40.0,-100.00,North,0,7.0,11.0,67,0.00,,,-99.99,,2013-06-19 08:43:00,
2013-06-19 08:53:00,51.0,40.0,-100.00,North,6,9.0,13.0,64,0.00,,,-99.99,,2013-06-19 08:53:00,
2013-06-19 09:02:00,52.0,38.0,-100.00,NNE,24,7.0,10.0,59,0.00,,,-99.99,,2013-06-19 09:02:00,
2013-06-19 09:11:00,52.0,36.0,-100.00,ENE,69,5.0,11.0,55,0.00,,,-99.99,,2013-06-19 09:11:00,
2013-06-19 09:22:00,51.0,37.0,-100.00,NE,54,2.0,4.0,58,0.00,,,-99.99,,2013-06-19 09:22:00,
2013-06-19 09:34:00,51.0,36.0,-100.00,East,83,3.0,6.0,56,0.00,,,-99.99,,2013-06-19 09:34:00,
2013-06-19 09:43:00,53.0,36.0,-100.00,ENE,64,3.0,7.0,51,0.00,,,-99.99,,2013-06-19 09:43:00,
2013-06-19 09:53:00,52.0,34.0,-100.00,SE,127,2.0,4.0,50,0.00,,,-99.99,,2013-06-19 09:53:00,
2013-06-19 10:01:00,53.0,30.0,-100.00,SE,137,3.0,9.0,41,0.00,,,-99.99,,2013-06-19 10:01:00,
2013-06-19 10:11:00,55.0,28.0,-100.00,ESE,103,5.0,8.0,35,0.00,,,-99.99,,2013-06-19 10:11:00,
2013-06-19 10:22:00,54.0,29.0,-100.00,SE,133,6.0,9.0,37,0.00,,,-99.99,,2013-06-19 10:22:00,
2013-06-19 10:33:00,54.0,28.0,-100.00,SE,134,7.0,11.0,36,0.00,,,-99.99,,2013-06-19 10:33:00,
2013-06-19 10:42:00,55.0,26.0,-100.00,SE,134,6.0,14.0,32,0.00,,,-99.99,,2013-06-19 10:42:00,
2013-06-19 10:52:00,55.0,24.0,-100.00,ESE,117,6.0,9.0,30,0.00,,,-99.99,,2013-06-19 10:52:00,
2013-06-19 11:11:00,55.0,22.0,-100.00,ESE,114,10.0,14.0,28,0.00,,,-99.99,,2013-06-19 11:11:00,
2013-06-19 11:22:00,54.0,21.0,-100.00,ESE,120,9.0,14.0,27,0.00,,,-99.99,,2013-06-19 11:22:00,
2013-06-19 11:33:00,58.0,20.0,-100.00,SE,133,12.0,18.0,22,0.00,,,-99.99,,2013-06-19 11:33:00,
2013-06-19 11:54:00,59.0,17.0,-100.00,SE,124,12.0,17.0,19,0.00,,,-99.99,,2013-06-19 11:54:00,
2013-06-19 12:11:00,58.0,18.0,-100.00,SE,126,11.0,16.0,21,0.00,,,-99.99,,2013-06-19 12:11:00,
2013-06-19 12:22:00,59.0,17.0,-100.00,SE,126,10.0,14.0,19,0.00,,,-99.99,,2013-06-19 12:22:00,
2013-06-19 12:34:00,60.0,18.0,-100.00,SE,124,11.0,17.0,19,0.00,,,-99.99,,2013-06-19 12:34:00,
2013-06-19 12:44:00,59.0,17.0,-100.00,ESE,123,11.0,17.0,19,0.00,,,-99.99,,2013-06-19 12:44:00,
2013-06-19 12:52:00,61.0,19.0,-100.00,ESE,119,12.0,16.0,20,0.00,,,-99.99,,2013-06-19 12:52:00,
2013-06-19 13:02:00,61.0,19.0,-100.00,ESE,121,11.0,17.0,20,0.00,,,-99.99,,2013-06-19 13:02:00,
2013-06-19 13:11:00,61.0,19.0,-100.00,SE,127,11.0,15.0,20,0.00,,,-99.99,,2013-06-19 13:11:00,
2013-06-19 13:22:00,62.0,19.0,-100.00,SE,130,10.0,14.0,19,0.00,,,-99.99,,2013-06-19 13:22:00,
2013-06-19 13:33:00,63.0,21.0,-100.00,SE,130,9.0,16.0,20,0.00,,,-99.99,,2013-06-19 13:33:00,
2013-06-19 13:53:00,65.0,22.0,-100.00,SE,131,12.0,16.0,19,0.00,,,-99.99,,2013-06-19 13:53:00,
2013-06-19 14:11:00,67.0,22.0,-100.00,SE,131,12.0,19.0,18,0.00,,,-99.99,,2013-06-19 14:11:00,
2013-06-19 14:22:00,68.0,22.0,-100.00,SE,131,12.0,17.0,17,0.00,,,-99.99,,2013-06-19 14:22:00,
2013-06-19 14:33:00,69.0,20.0,-100.00,SE,124,11.0,16.0,15,0.00,,,-99.99,,2013-06-19 14:33:00,
2013-06-19 14:43:00,69.0,20.0,-100.00,SE,124,11.0,16.0,15,0.00,,,-99.99,,2013-06-19 14:43:00,
2013-06-19 14:52:00,70.0,18.0,-100.00,SE,137,12.0,20.0,13,0.00,,,-99.99,,2013-06-19 14:52:00,
2013-06-19 15:01:00,71.0,19.0,-100.00,SE,138,15.0,20.0,14,0.00,,,-99.99,,2013-06-19 15:01:00,
2013-06-19 15:11:00,71.0,19.0,-100.00,SSE,147,15.0,22.0,13,0.00,,,-99.99,,2013-06-19 15:11:00,
2013-06-19 15:22:00,72.0,16.0,-100.00,SSE,148,17.0,23.0,12,0.00,,,-99.99,,2013-06-19 15:22:00,
2013-06-19 15:33:00,72.0,17.0,-100.00,SE,144,15.0,21.0,12,0.00,,,-99.99,,2013-06-19 15:33:00,
2013-06-19 15:42:00,72.0,17.0,-100.00,SE,145,16.0,23.0,12,0.00,,,-99.99,,2013-06-19 15:42:00,
2013-06-19 15:53:00,73.0,18.0,-100.00,SE,145,15.0,22.0,12,0.00,,,-99.99,,2013-06-19 15:53:00,
2013-06-19 16:01:00,73.0,19.0,-100.00,SE,134,15.0,22.0,13,0.00,,,-99.99,,2013-06-19 16:01:00,
2013-06-19 16:11:00,73.0,17.0,-100.00,SSE,152,17.0,24.0,12,0.00,,,-99.99,,2013-06-19 16:11:00,
2013-06-19 16:22:00,74.0,18.0,-100.00,SSE,152,15.0,24.0,12,0.00,,,-99.99,,2013-06-19 16:22:00,
2013-06-19 16:33:00,74.0,19.0,-100.00,SSE,157,17.0,25.0,12,0.00,,,-99.99,,2013-06-19 16:33:00,
2013-06-19 16:43:00,74.0,16.0,-100.00,SSE,158,17.0,25.0,11,0.00,,,-99.99,,2013-06-19 16:43:00,
2013-06-19 16:52:00,74.0,17.0,-100.00,SE,140,17.0,24.0,11,0.00,,,-99.99,,2013-06-19 16:52:00,
2013-06-19 17:02:00,74.0,15.0,-100.00,SE,144,17.0,25.0,11,0.00,,,-99.99,,2013-06-19 17:02:00,
2013-06-19 17:11:00,75.0,17.0,-100.00,SE,137,17.0,30.0,11,0.00,,,-99.99,,2013-06-19 17:11:00,
2013-06-19 17:22:00,74.0,19.0,-100.00,SSE,147,18.0,26.0,12,0.00,,,-99.99,,2013-06-19 17:22:00,
2013-06-19 17:34:00,75.0,20.0,-100.00,SSE,154,21.0,30.0,12,0.00,,,-99.99,,2013-06-19 17:34:00,
2013-06-19 17:43:00,75.0,18.0,-100.00,SSE,154,21.0,32.0,12,0.00,,,-99.99,,2013-06-19 17:43:00,
2013-06-19 17:53:00,75.0,19.0,-100.00,SE,128,14.0,24.0,12,0.00,,,-99.99,,2013-06-19 17:53:00,
2013-06-19 18:01:00,75.0,19.0,-100.00,SE,138,17.0,26.0,12,0.00,,,-99.99,,2013-06-19 18:01:00,
2013-06-19 18:11:00,75.0,15.0,-100.00,SE,144,17.0,27.0,10,0.00,,,-99.99,,2013-06-19 18:11:00,
2013-06-19 18:23:00,76.0,16.0,-100.00,SE,144,17.0,25.0,10,0.00,,,-99.99,,2013-06-19 18:23:00,
2013-06-19 18:33:00,76.0,15.0,-100.00,SE,143,20.0,29.0,10,0.00,,,-99.99,,2013-06-19 18:33:00,
2013-06-19 18:44:00,76.0,18.0,-100.00,SSE,152,21.0,29.0,11,0.00,,,-99.99,,2013-06-19 18:44:00,
2013-06-19 18:53:00,77.0,16.0,-100.00,SSE,152,17.0,24.0,10,0.00,,,-99.99,,2013-06-19 18:53:00,
2013-06-19 19:01:00,77.0,16.0,-100.00,SE,124,17.0,28.0,10,0.00,,,-99.99,,2013-06-19 19:01:00,
2013-06-19 19:11:00,77.0,17.0,-100.00,SSE,154,21.0,32.0,10,0.00,,,-99.99,,2013-06-19 19:11:00,
2013-06-19 19:22:00,78.0,18.0,-100.00,SSE,168,18.0,29.0,10,0.00,,,-99.99,,2013-06-19 19:22:00,
2013-06-19 19:32:00,78.0,16.0,-100.00,SSE,148,20.0,34.0,10,0.00,,,-99.99,,2013-06-19 19:32:00,
2013-06-19 19:43:00,78.0,16.0,-100.00,SSE,151,18.0,27.0,9,0.00,,,-99.99,,2013-06-19 19:43:00,
2013-06-19 19:52:00,77.0,14.0,-100.00,SE,140,20.0,35.0,9,0.00,,,-99.99,,2013-06-19 19:52:00,
2013-06-19 20:02:00,78.0,15.0,-100.00,ESE,114,22.0,35.0,9,0.00,,,-99.99,,2013-06-19 20:02:00,
2013-06-19 20:12:00,-999.0,-99.9,-100.00,SE,128,21.0,30.0,-999,-99.99,,,-99.99,,2013-06-19 20:12:00,
2013-06-19 20:22:00,78.0,17.0,-100.00,SE,131,21.0,33.0,10,0.00,,,-99.99,,2013-06-19 20:22:00,
2013-06-19 20:33:00,78.0,18.0,-100.00,ESE,117,18.0,27.0,10,0.00,,,-99.99,,2013-06-19 20:33:00,
2013-06-19 20:43:00,-999.0,-99.9,-100.00,SE,126,20.0,33.0,-999,-99.99,,,-99.99,,2013-06-19 20:43:00,
2013-06-19 20:52:00,80.0,20.0,-100.00,SSE,151,19.0,30.0,11,0.00,,,-99.99,,2013-06-19 20:52:00,
2013-06-19 21:02:00,79.0,17.0,-100.00,SSE,151,22.0,30.0,10,0.00,,,-99.99,,2013-06-19 21:02:00,
2013-06-19 21:11:00,80.0,17.0,-100.00,SSE,154,22.0,33.0,9,0.00,,,-99.99,,2013-06-19 21:11:00,
2013-06-19 21:22:00,79.0,17.0,-100.00,SSE,154,24.0,35.0,9,0.00,,,-99.99,,2013-06-19 21:22:00,
2013-06-19 21:33:00,80.0,17.0,-100.00,SSE,161,24.0,38.0,10,0.00,,,-99.99,,2013-06-19 21:33:00,
2013-06-19 21:44:00,79.0,15.0,-100.00,SSE,155,26.0,38.0,9,0.00,,,-99.99,,2013-06-19 21:44:00,
2013-06-19 21:52:00,78.0,17.0,-100.00,SE,141,26.0,37.0,10,0.00,,,-99.99,,2013-06-19 21:52:00,
2013-06-19 22:01:00,80.0,18.0,-100.00,SSE,148,24.0,34.0,10,0.00,,,-99.99,,2013-06-19 22:01:00,
2013-06-19 22:11:00,80.0,16.0,-100.00,SSE,155,24.0,41.0,9,0.00,,,-99.99,,2013-06-19 22:11:00,
2013-06-19 22:22:00,79.0,16.0,-100.00,SSE,164,26.0,36.0,9,0.00,,,-99.99,,2013-06-19 22:22:00,
2013-06-19 22:34:00,79.0,15.0,-100.00,SSE,168,29.0,35.0,9,0.00,,,-99.99,,2013-06-19 22:34:00,
2013-06-19 22:42:00,79.0,18.0,-100.00,SSE,162,27.0,35.0,10,0.00,,,-99.99,,2013-06-19 22:42:00,
2013-06-19 22:53:00,79.0,17.0,-100.00,SSE,168,26.0,33.0,10,0.00,,,-99.99,,2013-06-19 22:53:00,
2013-06-19 23:02:00,79.0,15.0,-100.00,South,169,28.0,37.0,9,0.00,,,-99.99,,2013-06-19 23:02:00,
2013-06-19 23:12:00,78.0,18.0,-100.00,SSE,167,28.0,39.0,10,0.00,,,-99.99,,2013-06-19 23:12:00,
2013-06-19 23:23:00,78.0,17.0,-100.00,SSE,161,23.0,34.0,10,0.00,,,-99.99,,2013-06-19 23:23:00,
2013-06-19 23:33:00,79.0,18.0,-100.00,SSE,164,23.0,30.0,10,0.00,,,-99.99,,2013-06-19 23:33:00,
2013-06-19 23:43:00,78.0,14.0,-100.00,SSE,164,23.0,34.0,9,0.00,,,-99.99,,2013-06-19 23:43:00,
2013-06-19 23:52:00,79.0,17.0,-100.00,SSE,154,20.0,29.0,10,0.00,,,-99.99,,2013-06-19 23:52:00,